[[{"header":{"parameterUnit":"m.s-1","parameterCategory":1,"la1":30.2991,"la2":30.254,"lo1":-89.0895,"lo2":-89.0444,"dy":0.0017,"dx":0.0017,"nx":28,"ny":28,"refTime":"2024-07-22T03:00:00:Z","depth":0,"parameterNumber":2,"parameterNumberName":"U-component_of_WINDS"},"data":[0,0,0,0,0,0,0,0,0,0,0,0,0,0,0,0,0,0,0,0,0,0,0,0,0,0,0,0,0,0,0,0,0,0,0,0,0,0,0,0,0,0,0,0,0,0,0,0,0,0,0,0,0,0,0,0,0,0,1.5245,1.5244,0,1.5154,1.5153,1.5152,1.5049,1.5048,1.5046,1.5045,1.4953,1.4952,1.4951,0,0,0,0,0,0,0,0,0,0,0,0,0,1.5328,1.5327,1.5245,1.5244,1.5243,1.5155,1.5153,1.5152,1.505,1.5048,1.5046,1.5044,1.4954,1.4952,1.4951,0,0,0,0,0,0,0,0,0,0,0,0,0,1.527,1.5327,1.5245,1.5181,1.5174,1.5155,1.5153,1.5152,1.505,1.5048,1.5045,1.5043,1.4954,1.4953,1.4951,1.4988,0,0,1.4947,1.4946,0,0,0,0,0,0,0,0,1.5274,1.5267,1.5191,1.5185,1.5178,1.5111,1.5149,1.5097,1.5051,1.5097,1.5045,1.5042,1.5008,1.5002,1.499,1.4984,1.498,1.4946,1.4945,1.4945,1.4944,0,0,0,0,0,0,0,1.5278,1.5271,1.5209,1.519,1.5182,1.5156,1.5145,1.5139,1.5067,1.5093,1.5085,1.5076,1.5003,1.4991,1.4987,1.4979,1.4946,1.4945,1.4944,1.4944,1.4994,1.4996,0,0,0,0,0,0,1.5291,1.5275,1.5212,1.5206,1.5221,1.5157,1.5145,1.5135,1.5066,1.5054,1.5078,1.5071,1.4995,1.4989,1.4983,1.5018,1.4945,1.4943,1.4943,1.4992,1.4995,1.4997,0,0,0,0,0,0,1.5294,1.5287,1.5216,1.5238,1.5227,1.5158,1.5147,1.5134,1.5122,1.5055,1.5042,1.5079,1.4993,1.4985,1.4987,1.5014,1.4943,1.4941,1.4989,1.4993,1.4996,1.5092,0,0,0,0,0,0,1.5296,1.5288,1.5302,1.5239,1.5226,1.5221,1.5149,1.5134,1.5119,1.511,1.5052,1.5041,1.4991,1.4989,1.4985,1.5011,1.494,1.4987,1.4991,1.4995,1.5086,1.5098,1.5109,0,0,0,0,0,1.53,1.5334,1.5303,1.5296,1.5242,1.5223,1.5215,1.5157,1.5122,1.5134,1.5091,1.5042,1.5013,1.499,1.4985,1.501,1.4985,1.499,1.4995,1.5081,1.5096,1.5109,0,0,0,0,0,0,1.5402,1.5324,1.529,1.5304,1.5271,1.5206,1.522,1.5175,1.5151,1.5144,1.5073,1.506,1.5069,1.504,1.5017,1.5041,1.4991,1.4995,1.5059,1.5073,1.5084,1.5089,1.4939,0,0,0,0,0,1.5426,1.5417,1.535,1.5369,1.5354,1.529,1.528,1.5237,1.52,1.5186,1.5142,1.5108,1.509,1.508,1.5061,1.5082,1.5066,1.5097,1.5108,1.5118,1.5122,1.5127,1.5139,1.5014,1.5014,1.5014,0,0,1.5476,1.5432,1.5431,1.5388,1.5357,1.5349,1.5279,1.5274,1.5266,1.5185,1.5182,1.515,1.5106,1.5117,1.512,1.5093,1.5153,1.5124,1.5133,1.5131,1.5133,1.5145,1.5156,1.5017,1.5017,1.5016,0,0,1.5561,1.5529,1.5539,1.5509,1.5463,1.542,1.5423,1.5364,1.5339,1.5335,1.5273,1.5263,1.5236,1.5206,1.5188,1.5261,1.5213,1.5257,1.5315,1.5321,1.5331,1.5339,1.5362,1.5371,1.5261,1.5261,1.5261,0,1.5628,1.5613,1.5551,1.5548,1.553,1.5456,1.5465,1.5439,1.539,1.5379,1.535,1.5311,1.5277,1.5278,1.5295,1.5284,1.5283,1.5261,1.5335,1.5342,1.5349,1.537,1.5379,1.5266,1.5266,1.5265,1.5265,0,1.5696,1.5687,1.5701,1.5653,1.5637,1.5641,1.5578,1.557,1.5529,1.5489,1.5485,1.5441,1.541,1.5408,1.5369,1.5402,1.5387,1.5348,1.5296,1.5367,1.5385,1.5393,1.5274,1.5272,1.527,1.5269,0,0,1.5842,1.5759,1.5765,1.5741,1.5684,1.5675,1.5675,1.5644,1.5636,1.5605,1.5601,1.5578,1.554,1.552,1.5477,1.5483,1.5538,1.5442,1.544,1.5458,1.5569,1.5596,1.5607,1.5508,1.5509,1.5511,1.5571,0,1.5914,1.5908,1.5852,1.5862,1.585,1.5779,1.5779,1.5743,1.5706,1.569,1.5649,1.5632,1.5586,1.5572,1.5575,1.5531,1.5559,1.5527,1.5502,1.5501,1.5511,1.5617,1.5646,1.5705,1.5578,1.5579,1.558,0,1.5997,1.5969,1.5978,1.5918,1.5911,1.5912,1.5877,1.5864,1.5822,1.5794,1.577,1.5721,1.5715,1.5669,1.5658,1.5637,1.5624,1.5601,1.5601,1.5594,1.5543,1.5609,1.5723,1.5731,1.5592,1.5591,1.559,0,1.6098,1.6063,1.6062,1.6045,1.5976,1.5978,1.5949,1.5905,1.5889,1.5859,1.5847,1.5818,1.5801,1.5779,1.5722,1.5694,1.5717,1.5667,1.5692,1.5693,1.5697,1.5697,1.5808,1.5695,1.5695,1.5695,1.5695,0,1.6183,1.619,1.6106,1.6105,1.6111,1.6046,1.6053,1.6018,1.5979,1.5969,1.5907,1.59,1.5827,1.5811,1.5767,1.5763,1.5757,1.5733,1.572,1.5736,1.5739,1.5724,1.5717,1.5697,1.5697,1.5696,1.5696,0,1.6295,1.6239,1.6233,1.6169,1.6153,1.616,1.6104,1.61,1.6059,1.6047,1.6041,1.5976,1.5953,1.5896,1.5859,1.5829,1.5836,1.5815,1.5849,1.5841,1.5868,1.5865,1.597,1.5979,1.5864,1.5866,1.5867,0,1.6351,1.6354,1.629,1.6279,1.6253,1.6236,1.6219,1.6156,1.614,1.6091,1.6093,1.6065,1.6039,1.6007,1.5955,1.5926,1.5902,1.5941,1.5897,1.5912,1.5898,1.5897,1.5896,1.595,1.5952,1.5953,1.5954,0,1.6454,1.6426,1.6404,1.6372,1.6353,1.6325,1.6293,1.6288,1.6216,1.6201,1.6177,1.6157,1.6118,1.6091,1.6053,1.6023,1.5975,1.5968,1.5972,1.5986,1.6005,1.5991,1.5872,1.5966,1.5964,1.5964,1.5963,1.5962,1.6537,1.6536,1.649,1.6466,1.6436,1.6407,1.6399,1.6357,1.6335,1.6298,1.6262,1.6241,1.6197,1.6141,1.6114,1.6096,1.6071,1.6078,1.6078,1.608,1.6086,1.601,1.6089,1.6089,1.6088,1.6088,1.6088,0,1.6634,1.6601,1.6581,1.6537,1.6518,1.6477,1.6439,1.6426,1.6408,1.6371,1.6346,1.6317,1.6289,1.6236,1.6204,1.6199,1.6176,1.6192,1.619,1.6183,1.6111,1.6109,1.6211,1.6211,1.6211,1.6211,1.6211,1.6211,1.6682,1.6677,1.6643,1.6621,1.6588,1.6566,1.6548,1.652,1.649,1.646,1.6437,1.6402,1.6358,1.6321,1.6294,1.6278,1.6268,1.629,1.6268,1.6201,1.6189,1.6178,1.6176,1.6289,1.6289,1.6341,1.6341,1.6342]},{"header":{"parameterUnit":"m.s-1","parameterCategory":1,"la1":30.2991,"la2":30.254,"lo1":-89.0895,"lo2":-89.0444,"dy":0.0017,"dx":0.0017,"nx":28,"ny":28,"refTime":"2024-07-22T03:00:00:Z","depth":0,"parameterNumber":3,"parameterNumberName":"V-component_of_WINDS"},"data":[0,0,0,0,0,0,0,0,0,0,0,0,0,0,0,0,0,0,0,0,0,0,0,0,0,0,0,0,0,0,0,0,0,0,0,0,0,0,0,0,0,0,0,0,0,0,0,0,0,0,0,0,0,0,0,0,0,0,2.6184,2.6185,0,2.6315,2.6317,2.6318,2.6337,2.6336,2.6335,2.6333,2.6466,2.6471,2.6475,0,0,0,0,0,0,0,0,0,0,0,0,0,2.5945,2.595,2.6184,2.6185,2.6187,2.6315,2.6317,2.6319,2.6337,2.6336,2.6334,2.6333,2.6465,2.647,2.6476,0,0,0,0,0,0,0,0,0,0,0,0,0,2.606,2.5951,2.6183,2.6212,2.6215,2.6315,2.6317,2.6319,2.6337,2.6336,2.6334,2.6332,2.6463,2.647,2.6476,2.6556,0,0,2.6498,2.6501,0,0,0,0,0,0,0,0,2.6053,2.6069,2.6206,2.621,2.6214,2.6308,2.6282,2.6399,2.6338,2.6291,2.6333,2.6331,2.6415,2.6426,2.6454,2.6562,2.6568,2.6498,2.6503,2.6506,2.6508,0,0,0,0,0,0,0,2.6045,2.6063,2.6236,2.6208,2.6213,2.6217,2.6231,2.6304,2.6361,2.6295,2.6297,2.6312,2.6417,2.6447,2.6458,2.657,2.6498,2.6504,2.6509,2.6512,2.6748,2.675,0,0,0,0,0,0,2.6033,2.6056,2.6232,2.624,2.6128,2.6223,2.6239,2.628,2.6361,2.6371,2.6314,2.6313,2.6436,2.6449,2.6462,2.656,2.6506,2.6512,2.6516,2.6746,2.6749,2.6751,0,0,0,0,0,0,2.6028,2.6048,2.6226,2.6149,2.6172,2.6229,2.6275,2.6283,2.6314,2.6375,2.6385,2.6335,2.6436,2.6452,2.6532,2.6565,2.6515,2.6522,2.6744,2.6747,2.675,2.6756,0,0,0,0,0,0,2.6021,2.6046,2.6078,2.6149,2.6176,2.6295,2.6277,2.6287,2.6326,2.6326,2.6397,2.6407,2.6435,2.6522,2.6539,2.6573,2.6527,2.6741,2.6745,2.6749,2.6753,2.6759,2.6764,0,0,0,0,0,2.6012,2.6074,2.6079,2.61,2.6217,2.6297,2.6312,2.6344,2.6329,2.6361,2.6399,2.6405,2.6558,2.653,2.655,2.6586,2.6739,2.6744,2.6749,2.675,2.6758,2.6763,0,0,0,0,0,0,2.6005,2.6084,2.6091,2.6178,2.6231,2.63,2.6341,2.6351,2.6408,2.6405,2.6442,2.6458,2.6535,2.6569,2.6536,2.6667,2.6647,2.6656,2.6642,2.6649,2.6654,2.6644,2.6533,0,0,0,0,0,2.6013,2.6073,2.6139,2.6209,2.6235,2.6284,2.632,2.634,2.6395,2.6418,2.6462,2.6516,2.6576,2.6614,2.6673,2.6758,2.6773,2.6793,2.6798,2.6802,2.6809,2.6855,2.6864,2.6766,2.6766,2.6766,0,0,2.6032,2.6082,2.6118,2.6209,2.6252,2.6312,2.6302,2.6366,2.641,2.6427,2.6505,2.654,2.6601,2.6684,2.6722,2.6714,2.6839,2.6808,2.6811,2.6816,2.686,2.687,2.6878,2.677,2.6769,2.6768,0,0,2.6095,2.614,2.6203,2.6247,2.6312,2.6344,2.6358,2.6427,2.645,2.6529,2.6543,2.6595,2.6699,2.6741,2.6777,2.6855,2.6862,2.6873,2.6901,2.6945,2.6953,2.6959,2.6986,2.6995,2.688,2.688,2.688,0,2.611,2.6201,2.6234,2.6298,2.6337,2.6355,2.6418,2.6458,2.6539,2.6565,2.6555,2.6684,2.6727,2.6819,2.6838,2.6867,2.6884,2.6865,2.6949,2.6956,2.6963,2.6989,2.6999,2.6881,2.6881,2.6881,2.6881,0,2.6214,2.6277,2.632,2.6398,2.6442,2.6505,2.6547,2.6587,2.6603,2.6635,2.6714,2.6766,2.6835,2.6859,2.6875,2.6952,2.6945,2.6942,2.6923,2.6973,2.6997,2.7007,2.6882,2.6882,2.6882,2.6882,0,0,2.6277,2.6372,2.6387,2.6422,2.6495,2.6544,2.6607,2.6675,2.6708,2.6763,2.6816,2.6902,2.6899,2.6939,2.696,2.6999,2.7055,2.699,2.6992,2.6999,2.7142,2.7143,2.7154,2.7061,2.7063,2.7064,2.7136,0,2.6348,2.6461,2.6493,2.6588,2.6646,2.6664,2.6718,2.6768,2.68,2.6853,2.6887,2.6947,2.6939,2.6963,2.7003,2.704,2.7084,2.7036,2.7109,2.7111,2.7091,2.7167,2.7169,2.7235,2.7146,2.7148,2.7149,0,2.6446,2.6503,2.6604,2.6668,2.6694,2.6742,2.6806,2.6857,2.6913,2.6933,2.6978,2.6995,2.706,2.7038,2.7127,2.7093,2.7125,2.7148,2.7151,2.7158,2.7132,2.7175,2.7257,2.7266,2.7165,2.7164,2.7163,0,2.6479,2.6581,2.6655,2.6684,2.6762,2.6795,2.6829,2.6884,2.6922,2.6977,2.7002,2.7065,2.7098,2.7146,2.7179,2.716,2.7264,2.7246,2.7281,2.7281,2.7302,2.73,2.7388,2.7324,2.7324,2.7324,2.7324,0,2.6555,2.6615,2.6671,2.6716,2.6784,2.6819,2.6885,2.6919,2.6968,2.7019,2.7038,2.7085,2.7127,2.7179,2.7206,2.7274,2.729,2.7307,2.7313,2.7304,2.7302,2.7325,2.732,2.7327,2.7326,2.7326,2.7325,0,2.6603,2.6643,2.6724,2.679,2.6808,2.6855,2.6912,2.6955,2.6987,2.7051,2.7069,2.7118,2.7181,2.7219,2.7298,2.7316,2.7391,2.7396,2.7372,2.7375,2.7408,2.7403,2.7513,2.7528,2.7455,2.7456,2.7457,0,2.6648,2.6695,2.6766,2.6802,2.6836,2.6894,2.6933,2.6969,2.7008,2.7076,2.7111,2.7175,2.7228,2.7327,2.7369,2.743,2.7435,2.7469,2.7444,2.7434,2.7434,2.743,2.7434,2.7473,2.7474,2.7474,2.7475,0,2.6723,2.674,2.6795,2.6858,2.6904,2.6955,2.7005,2.7033,2.7077,2.7121,2.7185,2.7226,2.7307,2.737,2.7434,2.7467,2.7478,2.7482,2.7493,2.7485,2.7468,2.7476,2.7382,2.7479,2.7479,2.7479,2.7478,2.7478,2.677,2.6812,2.6868,2.6929,2.6971,2.7018,2.7061,2.7099,2.7153,2.7222,2.724,2.7307,2.7361,2.7448,2.7483,2.7535,2.7529,2.7546,2.755,2.7553,2.7553,2.7461,2.7547,2.7547,2.7547,2.7547,2.7547,0,2.6844,2.6881,2.6937,2.7007,2.7054,2.7061,2.7117,2.7156,2.7215,2.7265,2.7316,2.739,2.745,2.7497,2.7559,2.7592,2.7598,2.7607,2.7604,2.7611,2.7555,2.7539,2.76,2.76,2.76,2.76,2.76,2.76,2.6888,2.6959,2.6983,2.7074,2.711,2.7177,2.7208,2.725,2.729,2.7371,2.7421,2.7452,2.75,2.7566,2.7621,2.7633,2.7654,2.7662,2.7675,2.7621,2.7615,2.761,2.7594,2.7667,2.7667,2.7726,2.7727,2.7727]}]]